GFSFLT2_sfc_dewp_000.txt.gz
Dewpoint
69 69 69 68 68 67 68 68 68 68 68 67 66 65 65 63 62 61 60 59 58 58 59 59 59 59 60 60 61 62 60 56
65 66 66 66 66 67 67 66 66 66 66 66 65 65 64 64 63 62 61 60 60 60 60 60 59 60 60 60 61 61 57 55
63 63 64 64 64 65 66 66 65 65 65 65 64 63 62 62 63 62 63 62 62 62 62 61 60 60 60 60 60 58 57 56
60 61 62 63 62 64 64 64 64 63 64 63 63 63 62 61 62 63 63 63 63 63 63 63 61 57 56 55 50 53 53 52
59 61 61 60 59 62 62 63 63 63 63 63 62 63 60 62 60 61 61 62 61 61 61 60 59 57 56 51 45 44 47 49
57 58 59 56 59 61 61 61 62 63 62 60 59 59 55 55 57 58 58 57 58 59 59 58 56 56 55 51 44 42 44 47
57 57 56 56 55 57 57 58 60 61 60 59 57 56 53 54 53 52 51 51 52 52 54 52 50 51 50 47 44 41 42 45
59 60 59 55 55 57 56 56 56 57 57 56 55 54 54 54 52 52 52 52 52 50 49 49 49 50 50 49 46 42 40 42
60 61 59 57 55 56 55 51 51 52 51 51 50 52 52 52 50 49 51 52 51 51 50 50 50 50 50 50 50 47 43 42
61 59 60 57 54 52 50 50 50 49 50 49 49 50 50 49 47 47 49 49 49 48 49 49 48 48 48 48 49 48 47 45
59 60 59 57 53 53 50 50 49 47 47 45 47 48 48 46 45 45 47 47 46 46 46 48 46 44 43 41 45 47 48 48
56 58 58 53 45 48 47 48 48 46 43 44 45 44 44 44 44 45 46 44 43 43 42 43 43 44 40 41 43 45 46 47
50 50 51 43 46 46 49 44 43 42 42 45 45 45 45 45 44 45 45 43 42 41 42 42 41 42 40 38 40 40 42 44
48 46 45 45 48 48 47 44 43 43 46 44 45 46 43 42 43 42 43 41 41 41 42 41 41 42 40 41 34 36 37 41
41 40 41 45 46 43 44 44 44 44 42 42 43 42 41 40 40 41 41 41 41 40 41 41 41 42 42 41 38 36 39 40
39 39 39 40 41 41 43 43 41 43 43 41 38 39 40 39 39 41 41 41 40 41 42 42 41 40 41 41 40 38 36 34
39 39 39 39 39 40 42 39 39 41 41 37 36 38 39 38 39 40 40 40 40 40 41 40 41 40 40 39 38 38 38 36
37 36 38 39 39 39 41 37 37 38 35 35 35 37 37 38 38 38 37 38 38 39 38 39 38 38 38 38 38 36 35 35
39 39 38 38 39 39 38 37 37 34 33 34 33 36 37 38 38 38 38 38 37 37 36 36 37 36 36 37 38 37 37 36
40 38 35 38 37 36 37 38 38 36 35 33 36 37 37 38 38 37 36 36 36 35 35 35 35 35 34 35 35 36 36 35

GFSFLT2_sfc_dewp_006.txt.gz
Dewpoint
69 69 69 69 68 68 68 68 68 68 67 66 66 65 64 62 60 60 60 59 60 61 62 62 61 61 61 61 60 60 54 55
66 67 68 67 66 67 67 67 67 67 66 66 64 64 64 63 62 61 62 61 62 62 62 62 62 62 61 61 60 53 50 51
67 66 67 65 64 66 66 67 66 66 65 65 63 61 60 60 62 63 63 62 62 63 63 63 62 61 60 61 58 48 46 48
64 63 63 63 65 64 63 63 63 63 63 62 62 61 60 61 62 63 63 63 64 64 64 64 62 58 57 58 54 51 45 45
62 62 62 61 62 61 61 61 61 61 61 60 61 61 60 60 60 58 58 60 59 58 59 58 58 57 57 56 55 53 48 45
61 60 60 60 60 60 60 60 60 60 61 61 60 59 58 56 56 53 52 52 51 53 55 55 55 53 52 53 54 53 49 46
58 59 59 59 59 59 59 60 61 61 61 60 58 57 53 53 52 52 51 52 51 50 50 50 50 50 49 50 49 49 48 47
58 59 58 56 57 58 59 59 60 60 60 57 56 54 53 52 50 49 48 50 49 49 49 49 48 48 46 47 47 47 46 47
57 59 58 58 58 58 59 58 59 58 56 52 54 53 51 48 46 44 46 47 47 46 46 44 43 43 43 44 42 44 45 48
60 61 61 60 59 58 58 56 55 55 55 54 50 46 46 44 44 45 46 45 43 43 44 40 42 42 40 40 40 42 43 48
60 61 60 59 58 56 55 52 49 49 49 47 44 45 44 44 44 45 43 41 41 41 41 41 41 40 39 40 38 40 43 46
58 57 56 55 55 54 53 50 49 50 49 48 44 42 44 44 42 42 41 39 39 40 39 40 40 41 39 37 37 37 43 45
53 53 54 52 50 49 48 47 50 51 44 43 42 41 40 40 40 40 40 39 39 40 39 39 38 42 39 37 38 37 40 43
52 50 48 48 48 48 50 50 48 43 41 39 40 40 39 39 40 40 39 38 39 40 40 39 39 41 40 39 35 37 38 38
42 43 43 45 48 48 44 43 43 39 40 36 38 39 39 39 39 39 38 38 39 39 39 39 38 39 39 38 35 33 35 37
38 39 39 40 40 40 39 39 38 40 37 35 37 38 38 38 38 38 38 38 39 39 38 37 38 34 37 36 37 36 34 32
38 38 38 38 39 41 40 37 39 38 35 34 34 37 37 37 37 37 37 37 36 36 34 33 35 33 34 35 35 35 35 33
37 39 39 39 38 39 38 37 35 33 34 35 35 35 37 37 37 37 37 36 35 34 33 33 33 33 33 33 34 33 31 32
37 36 35 36 36 36 36 35 32 33 34 35 36 37 37 37 37 36 36 35 35 33 31 31 30 29 30 30 32 31 33 32
32 32 32 34 35 35 35 35 36 37 38 37 37 36 36 37 36 34 34 36 35 35 33 31 31 29 28 28 30 31 31 31

GFSFLT2_sfc_dewp_009.txt.gz
Dewpoint
69 69 69 69 68 68 68 67 68 67 67 66 65 64 63 61 61 61 60 61 62 62 62 62 61 62 62 62 61 56 47 47
68 69 68 68 68 67 67 67 67 67 66 65 63 63 63 63 61 61 62 62 62 63 63 63 63 63 62 61 61 55 48 46
67 66 66 68 68 67 67 67 66 66 65 64 63 61 61 60 62 63 63 63 63 64 64 63 63 62 61 61 60 53 52 48
66 66 66 67 65 66 65 63 62 63 62 63 62 63 63 62 62 63 62 62 63 63 63 63 61 58 56 58 53 56 54 52
64 65 66 67 65 64 63 62 62 62 63 63 63 63 64 63 62 61 61 59 56 56 56 57 58 57 54 55 54 53 51 50
65 66 65 64 62 62 61 60 61 61 62 63 63 62 63 60 57 55 56 55 55 54 53 56 55 53 52 52 51 47 43 44
63 63 62 62 61 61 60 60 61 62 63 63 62 60 60 57 56 54 53 52 51 51 51 51 51 49 49 47 45 44 44 42
61 61 60 59 60 61 62 62 61 61 62 60 59 59 58 55 51 48 48 49 49 48 49 47 46 45 45 45 42 42 43 46
61 60 60 60 60 61 60 60 59 57 58 58 55 54 53 50 49 49 49 49 47 47 45 45 43 40 40 40 38 42 40 47
61 61 61 61 61 60 59 56 56 55 55 54 49 48 50 49 47 47 46 45 44 44 43 41 41 40 38 37 38 38 43 47
61 62 61 61 59 56 53 52 49 49 52 49 48 47 47 47 45 45 44 42 43 41 41 41 39 37 31 34 34 32 45 43
60 60 60 59 57 54 53 50 49 50 48 45 44 42 44 44 43 44 42 40 40 40 40 38 39 38 27 31 32 36 45 44
57 57 57 56 52 51 51 50 50 47 41 43 43 43 42 44 41 41 41 40 42 41 38 35 32 39 32 29 28 40 42 40
56 54 52 49 49 50 52 52 47 41 40 42 41 42 40 40 42 40 42 40 42 41 38 33 36 41 32 29 25 26 32 38
50 49 49 48 49 48 46 46 45 42 38 38 39 40 38 40 42 42 42 42 40 41 40 38 33 36 41 31 26 24 31 31
44 44 43 43 44 44 45 42 41 42 38 38 39 41 40 38 40 42 42 41 41 40 37 38 36 31 31 34 35 34 26 24
43 42 42 42 44 44 42 42 41 38 39 40 40 41 41 39 39 41 41 39 40 39 37 34 32 29 28 28 29 26 28 24
42 39 38 41 42 42 43 42 38 38 39 39 39 40 40 41 39 40 40 39 37 36 36 33 31 30 28 27 23 20 19 23
38 36 36 39 39 39 39 39 40 40 39 38 38 37 36 39 41 40 38 36 36 36 33 33 31 27 27 23 26 24 25 24
37 36 36 37 38 37 36 33 30 28 30 30 30 31 33 40 40 38 38 38 37 36 34 33 33 31 31 31 28 27 31 31

GFSFLT2_sfc_dewp_012.txt.gz
Dewpoint
67 66 67 68 69 68 67 68 68 67 66 65 63 62 62 61 61 61 60 60 61 61 61 62 62 62 62 61 61 55 48 44
67 67 66 67 67 67 67 67 66 66 65 64 63 63 61 61 60 61 61 62 62 62 62 63 63 63 62 62 61 60 47 45
66 65 65 65 64 67 66 67 66 65 64 63 61 58 58 57 61 62 63 63 63 63 63 64 63 63 61 60 60 45 47 44
65 66 66 66 61 63 62 58 57 58 59 61 59 62 61 59 61 62 61 62 62 60 60 61 60 49 48 55 45 49 46 46
64 66 66 64 61 59 56 56 58 60 63 62 62 62 62 59 57 56 57 57 53 53 52 49 53 52 48 49 48 46 43 43
64 65 65 63 58 55 56 57 59 60 61 63 64 61 60 58 54 55 57 54 53 51 49 52 52 50 50 49 47 44 41 41
61 62 62 62 59 58 59 60 61 62 63 63 62 61 61 58 57 54 52 50 49 48 47 46 46 45 47 45 43 44 44 41
61 60 60 59 59 60 60 60 60 61 62 61 60 61 61 58 53 50 49 49 47 45 46 43 42 43 41 44 42 42 41 44
61 61 60 60 60 59 60 59 60 58 59 60 58 58 57 53 50 51 48 47 45 44 43 42 41 39 40 40 40 40 39 42
61 61 61 61 61 60 60 60 58 55 55 55 52 49 51 51 50 48 46 44 43 42 42 39 39 39 39 36 37 37 36 43
61 62 62 62 60 59 57 57 53 52 52 50 50 47 47 48 45 45 45 42 43 41 40 40 37 37 34 32 34 34 35 34
62 62 62 62 61 57 53 49 49 49 48 45 44 43 45 45 44 45 41 39 38 39 40 38 38 38 33 31 35 33 33 37
61 61 61 59 56 53 49 49 49 47 44 44 44 43 42 43 40 40 41 39 42 42 39 38 35 38 35 29 28 30 36 36
59 59 58 56 53 49 50 51 48 43 43 44 41 41 39 38 42 40 40 38 40 42 40 36 32 35 36 33 26 25 26 32
54 52 51 50 51 49 49 48 45 43 41 40 41 41 39 40 42 41 41 39 36 40 40 39 35 34 35 33 29 25 26 27
49 48 47 46 44 45 47 43 42 42 42 41 40 43 43 41 40 42 41 39 39 39 36 38 35 30 31 28 31 30 26 24
45 44 43 45 45 46 44 43 41 40 41 41 42 42 42 40 40 40 40 39 40 40 38 35 34 33 29 29 29 26 25 21
45 43 42 43 43 44 44 42 40 39 39 36 33 31 29 30 30 39 41 40 41 38 37 36 34 31 27 25 23 22 20 19
42 40 40 41 42 40 40 38 34 30 27 25 26 23 24 27 32 35 38 40 38 38 36 37 32 28 27 24 23 23 22 21
41 39 38 36 34 31 30 27 24 23 26 27 25 26 26 32 35 37 39 39 38 38 37 34 32 29 29 27 25 23 22 22

GFSFLT2_sfc_dewp_015.txt.gz
Dewpoint
66 66 66 68 68 68 68 68 67 67 65 64 62 61 62 61 61 61 61 61 61 61 61 62 62 62 62 62 62 62 55 44
67 66 65 66 67 67 67 67 66 66 64 63 62 62 61 60 60 62 62 62 62 63 63 63 63 63 62 61 61 61 47 43
66 65 65 65 65 66 66 66 66 65 64 62 60 57 56 57 61 62 62 62 62 62 62 62 63 63 62 60 60 44 46 42
66 65 63 62 57 60 58 55 55 57 58 58 55 59 58 54 59 61 61 61 62 61 60 61 60 48 48 58 44 46 42 41
64 66 66 59 57 55 53 53 57 60 61 59 60 58 59 57 55 55 56 57 52 53 51 50 52 51 49 49 47 45 40 40
64 64 64 59 55 52 54 55 57 57 59 60 61 58 59 58 54 55 56 53 53 52 50 52 51 48 47 48 46 44 41 41
60 61 60 59 56 56 59 60 61 61 62 62 62 60 60 59 61 57 53 52 51 51 49 47 46 46 46 44 44 43 43 40
58 57 59 57 58 61 59 58 58 58 59 60 60 60 60 58 55 54 52 54 49 47 45 45 43 44 43 42 43 42 42 43
58 59 58 58 60 59 59 60 60 58 57 60 60 59 59 57 54 53 53 52 49 47 46 43 41 39 41 40 39 39 39 40
59 57 59 60 60 60 60 60 59 56 54 55 53 52 54 52 51 50 47 44 43 44 42 40 40 39 38 37 36 35 37 39
60 61 61 61 61 61 60 59 56 54 54 51 51 47 47 48 45 46 47 43 43 42 41 42 40 39 36 35 37 34 37 32
60 61 63 61 60 60 58 56 53 51 50 47 46 44 45 46 44 46 44 41 41 43 44 42 40 37 30 34 37 32 33 34
61 61 62 60 58 56 52 50 50 49 46 46 46 44 42 44 42 43 43 42 43 43 42 41 33 34 31 33 33 35 37 32
61 60 60 57 54 51 50 50 50 45 44 45 43 44 42 41 44 43 43 41 42 41 40 37 34 34 32 31 29 27 28 31
58 57 55 52 51 51 51 50 46 43 43 41 43 44 42 42 43 43 43 41 36 39 38 39 34 34 35 30 27 25 27 27
53 51 49 50 48 45 45 44 43 44 42 42 42 43 43 40 39 40 41 39 38 37 34 37 37 32 32 29 32 30 26 25
49 46 44 45 46 47 45 44 42 41 42 41 41 37 33 29 29 32 35 38 39 40 40 38 35 34 32 30 29 26 26 21
47 44 44 45 46 46 46 43 40 37 33 28 26 25 25 27 27 32 34 36 39 38 38 38 39 37 31 29 26 23 20 20
45 43 42 44 43 41 39 34 32 28 27 25 26 25 25 28 32 34 34 35 37 37 40 39 39 34 32 29 25 24 24 22
42 42 41 39 35 32 31 28 29 26 27 28 26 26 27 30 31 35 37 36 40 40 40 41 38 33 31 30 27 26 24 22

GFSFLT2_sfc_dewp_021.txt.gz
Dewpoint
66 67 67 67 66 66 66 66 65 64 64 64 64 64 64 65 65 65 64 64 63 64 64 63 63 63 62 63 63 62 51 52
63 67 65 65 64 65 65 64 63 63 63 63 63 63 64 64 64 64 63 62 62 63 61 62 62 61 62 62 62 58 48 52
62 66 65 65 63 63 64 65 63 62 62 62 61 59 59 61 62 63 62 61 61 62 61 61 61 60 62 62 61 47 48 51
63 64 65 64 60 62 62 61 61 59 58 58 57 59 59 59 61 62 61 62 61 60 60 62 60 52 51 57 48 46 46 52
63 64 65 61 59 60 59 58 60 61 60 60 60 61 60 60 60 60 59 60 56 57 54 52 47 48 50 48 47 44 45 52
63 64 63 59 60 58 58 61 62 64 62 61 62 61 60 58 57 57 56 55 52 51 50 47 46 46 47 46 46 43 45 50
62 63 58 57 59 61 60 60 60 60 60 60 61 59 58 57 57 56 53 52 48 47 48 46 45 43 43 44 43 42 42 44
61 60 57 60 59 58 58 58 58 59 60 60 60 60 57 56 53 50 49 49 49 47 45 45 43 42 41 42 40 40 38 39
60 57 60 60 58 58 58 59 58 58 58 58 58 57 55 53 51 51 49 47 46 44 45 44 44 42 41 41 39 39 37 37
58 58 61 59 59 58 59 59 57 55 54 54 53 53 52 50 51 47 46 47 47 46 45 44 44 42 39 37 40 37 37 34
56 58 60 59 60 59 59 59 55 54 54 52 49 49 49 49 48 46 45 46 46 45 44 44 42 40 35 33 34 37 35 35
58 60 60 60 59 59 59 57 55 55 52 49 47 46 46 48 47 47 46 45 44 42 42 40 41 38 36 34 35 36 36 35
61 60 60 60 58 58 57 54 53 49 47 46 46 45 46 45 45 45 44 43 42 42 40 38 38 39 35 34 33 33 31 32
60 60 60 58 58 58 55 52 50 47 47 46 45 45 43 44 44 43 43 42 41 40 39 38 39 37 33 34 31 31 32 32
60 59 59 59 59 52 50 47 46 45 45 44 44 44 43 40 39 38 39 41 40 39 39 38 36 36 35 33 30 28 29 29
60 60 60 60 55 49 45 44 44 46 46 45 40 35 33 32 35 36 36 37 35 40 39 38 37 35 36 35 32 31 25 24
59 58 54 51 50 50 47 44 44 41 38 33 30 33 32 32 34 34 34 38 37 38 39 39 39 37 36 34 31 29 26 23
49 47 47 46 45 45 43 41 33 32 30 30 30 32 34 33 31 34 36 37 38 40 38 38 39 38 37 34 30 28 25 24
44 46 45 43 40 35 34 34 31 29 29 31 30 30 31 30 32 33 34 37 40 39 38 39 38 37 36 33 32 30 28 27
44 45 43 42 38 34 33 31 32 32 32 31 32 31 31 31 32 32 33 35 39 39 39 39 38 37 35 34 32 30 29 27

GFSFLT2_sfc_dewp_024.txt.gz
Dewpoint
65 65 66 66 66 66 65 64 64 64 64 64 64 64 65 65 65 65 64 63 63 61 61 62 61 61 63 63 59 59 52 55
63 64 65 65 64 65 65 63 63 64 64 64 63 64 64 64 64 63 63 61 61 60 61 61 60 61 62 62 56 57 51 54
63 65 64 64 63 63 64 63 63 63 63 63 61 60 60 61 61 62 61 61 61 60 60 61 61 58 62 60 54 48 50 53
61 64 64 63 60 62 61 59 59 58 58 58 56 57 58 60 62 61 61 60 61 61 62 58 54 49 50 52 46 45 50 53
60 64 63 61 58 60 59 59 58 58 56 57 59 59 60 60 59 59 58 57 53 52 49 47 46 47 47 48 45 44 46 51
61 64 63 60 58 58 57 59 62 62 61 61 60 60 57 56 56 55 53 51 48 49 48 46 44 43 43 42 42 42 43 47
62 63 63 59 59 59 60 62 60 60 60 60 59 58 56 56 53 51 50 48 47 46 45 43 43 41 42 40 40 40 38 43
62 63 58 59 60 59 58 58 59 59 60 60 59 57 55 52 50 49 48 48 46 44 43 43 42 41 40 38 40 38 37 36
62 58 60 59 58 57 57 58 58 57 58 58 57 55 53 51 50 48 46 47 45 45 44 44 43 41 37 36 40 37 37 35
60 60 59 58 57 57 58 57 55 54 54 54 54 53 51 50 47 45 46 46 45 44 44 43 42 39 36 34 36 37 35 34
57 60 58 58 57 58 58 56 54 53 53 51 50 49 50 48 46 45 45 45 44 43 42 41 40 38 36 34 36 36 35 32
58 60 58 58 58 58 57 56 54 54 51 49 46 46 48 47 45 45 44 43 42 41 37 38 38 38 35 33 33 34 33 33
59 59 59 57 58 57 56 54 53 51 46 46 45 46 45 44 45 43 43 42 41 40 38 36 36 37 33 33 33 33 32 31
59 59 59 56 56 58 56 53 49 46 45 45 44 44 43 43 43 43 42 40 39 39 37 37 38 36 33 33 29 31 30 29
59 59 58 57 56 56 51 48 46 44 43 43 44 44 40 38 37 36 36 37 36 37 38 36 35 36 34 32 29 28 28 29
60 59 58 58 57 53 50 47 44 44 44 44 38 34 35 35 34 35 35 36 35 36 40 38 36 35 35 34 31 30 25 23
59 59 59 59 52 50 47 45 45 45 41 33 32 33 34 34 34 34 36 37 37 39 38 38 38 37 35 34 30 28 26 24
58 57 52 52 51 48 45 41 38 35 32 31 32 34 34 32 33 33 34 37 39 38 38 38 37 37 36 34 30 27 26 24
52 47 44 43 42 41 38 34 32 30 30 31 32 32 32 31 32 32 33 37 39 38 38 38 37 36 35 33 32 31 29 27
47 43 40 36 35 34 34 32 32 32 33 33 33 32 32 32 32 32 33 33 37 38 38 38 37 36 35 34 33 31 30 29